Torna al catalogo

YZ-1S R/B

AttivoHEO
NORAD 60326·ROCKET BODY·🇨🇳 China

Lanciato Mar 13, 2024 da Xichang Satellite Launch Center

Loading…

Prossimi Passaggi (prossime 24 ore)

TLE

AggiornatoSource: Space-Track

Epoca: Sep 15, 2026, 07:15 UTC

1 60326U 24048E   26258.30221094 -.00001175  00000-0  25046-2 0  9993
2 60326  15.4315 293.2141 8922287 260.1111 358.9493  0.47335060  4160

Traccia YZ-1S R/B in tempo reale con AllMySat

Download on the App Store